SILO ALERT LOG


Silo ID Alert Type Alert Message Silo Type Points Depth (mm) Strength Temperature (°C) Humidity (%) Height (mm) Volume (㎥) Weight (t) Flag Time
WJWJR01 Humidity 습도센서 측정값이 80% 초과 74 7620 1156 25.9 82.9 19 2.262 1.43 0 2026-07-14 04:26:04.000
WJWJR01 Humidity 습도센서 측정값이 80% 초과 75 7650 1140 26.2 82.4 -10 -1.131 0 0 2026-07-14 03:25:57.000
WJWJR01 Humidity 습도센서 측정값이 80% 초과 74 7610 1171 26.4 81.6 29 3.393 2.145 0 2026-07-14 02:26:00.000
WJWJR01 Humidity 습도센서 측정값이 80% 초과 73 7670 1188 26.8 80.6 -30 -3.393 0 0 2026-07-14 01:25:56.000
WJWJR01 Humidity 습도센서 측정값이 80% 초과 77 7500 1217 26.7 81.1 139 15.834 10.01 0 2026-07-13 08:25:58.000
WJWJR01 Humidity 습도센서 측정값이 80% 초과 72 7580 1213 25.4 83.2 59 6.786 4.29 0 2026-07-13 07:26:02.000
WJWJR01 Humidity 습도센서 측정값이 80% 초과 75 7490 1219 25.4 83.3 149 16.965 10.725 0 2026-07-13 06:25:57.000
WJWJR01 Humidity 습도센서 측정값이 80% 초과 72 7530 1224 25.6 83.1 109 12.441 7.865 0 2026-07-13 05:26:00.000
WJWJR01 Humidity 습도센서 측정값이 80% 초과 72 7510 1188 25.9 82.8 129 14.703 9.295 0 2026-07-13 04:25:59.000
WJWJR01 Humidity 습도센서 측정값이 80% 초과 73 7500 1217 26.2 82.4 139 15.834 10.01 0 2026-07-13 03:26:04.000
WJWJR01 Humidity 습도센서 측정값이 80% 초과 72 7500 1224 26.6 81.8 139 15.834 10.01 0 2026-07-13 02:26:01.000
WJWJR01 Humidity 습도센서 측정값이 80% 초과 74 7520 1214 27 81.1 120 13.572 8.58 0 2026-07-13 01:26:05.000
WJWJR01 Humidity 습도센서 측정값이 80% 초과 74 7520 1205 27.5 80.1 120 13.572 8.58 0 2026-07-13 00:26:05.000
WJWJR05 Humidity 습도센서 측정값이 80% 초과 67 5770 2793 29.4 81.4 1960 221.671 140.14 0 2026-07-12 10:25:52.000
WJWJR05 Humidity 습도센서 측정값이 80% 초과 66 5780 2786 28.1 84 1950 220.54 139.425 0 2026-07-12 09:25:48.000
WJWJR01 Humidity 습도센서 측정값이 80% 초과 73 7500 1220 26.2 81.1 139 15.834 10.01 0 2026-07-12 08:26:04.000
WJWJR05 Humidity 습도센서 측정값이 80% 초과 67 5780 2755 27 80.4 1950 220.54 139.425 0 2026-07-12 08:25:51.000
WJWJR01 Humidity 습도센서 측정값이 80% 초과 73 7510 1227 24.7 83.9 129 14.703 9.295 0 2026-07-12 07:25:59.000
WJWJR01 Humidity 습도센서 측정값이 80% 초과 71 7510 1215 24.5 84.2 129 14.703 9.295 0 2026-07-12 06:25:58.000
WJWJR01 Humidity 습도센서 측정값이 80% 초과 73 7520 1221 24.7 84.1 120 13.572 8.58 0 2026-07-12 05:25:59.000

[첫 페이지] [31] [32] [33] [34] 35 [36] [37] [38] [39] [마지막 페이지]